This is the latest recevied weather packets stored in our database for station/object WD4HMR. If no packets are shown the sender has not sent any weather packets the latest 10 day(s).
| Time | Temp. | Humidity | Pressure | Rain* | Wind** | Luminosity | Snow |
|---|---|---|---|---|---|---|---|
| 1777307404 | 21.67° C | 82% | 1018.8 hPa | 0 mm | - | 1108 W/m² | - |
| 1777307104 | 21.67° C | 81% | 1018.8 hPa | 0 mm | - | 1094 W/m² | - |
| 1777306804 | 21.67° C | 81% | 1018.9 hPa | 0 mm | - | 1079 W/m² | - |
| 1777306504 | 21.11° C | 82% | 1018.8 hPa | 0 mm | - | 1063 W/m² | - |
| 1777306204 | 21.11° C | 82% | 1018.8 hPa | 0 mm | - | 1047 W/m² | - |
| 1777305304 | 20.56° C | 84% | 1018.5 hPa | 0 mm | - | 996 W/m² | - |
| 1777304404 | 20.56° C | 84% | 1018.5 hPa | 0 mm | - | 941 W/m² | - |
| 1777302003 | 20° C | 86% | 1018.2 hPa | 0 mm | - | 780 W/m² | - |
| 1777300504 | 19.44° C | 87% | 1018.1 hPa | 0 mm | - | 673 W/m² | - |
| 1777299604 | 19.44° C | 88% | 1017.8 hPa | 0 mm | - | 608 W/m² | - |
| 1777299304 | 18.89° C | 89% | 1017.7 hPa | 0 mm | - | 586 W/m² | - |
| 1777297804 | 18.33° C | 90% | 1017.2 hPa | 0 mm | - | 479 W/m² | - |
| 1777296604 | 18.33° C | 91% | 1016.9 hPa | 0 mm | - | 395 W/m² | - |
| 1777295704 | 17.78° C | 91% | 1017 hPa | 0 mm | - | 251 W/m² | - |
| 1777295404 | 17.78° C | 91% | 1017 hPa | 0 mm | - | 211 W/m² | - |
| 1777295104 | 17.78° C | 91% | 1017 hPa | 0 mm | - | 212 W/m² | - |
| 1777294803 | 17.78° C | 90% | 1017 hPa | 0 mm | - | 208 W/m² | - |
| 1777294203 | 17.78° C | 90% | 1016.9 hPa | 0 mm | - | 199 W/m² | - |
| 1777293604 | 17.78° C | 90% | 1017 hPa | 0 mm | - | 204 W/m² | - |
| 1777291204 | 17.22° C | 89% | 1016.5 hPa | 0 mm | - | 77 W/m² | - |
| 1777290604 | 16.67° C | 90% | 1016.4 hPa | 0 mm | - | 49 W/m² | - |
| 1777290004 | 16.67° C | 90% | 1016.3 hPa | 0 mm | - | 20 W/m² | - |
| 1777287604 | 16.67° C | 89% | 1015.9 hPa | 0 mm | - | 0 W/m² | - |
| 1777287004 | 16.67° C | 89% | 1015.7 hPa | 0 mm | - | 0 W/m² | - |
| 1777286704 | 16.67° C | 89% | 1015.8 hPa | 0 mm | - | 0 W/m² | - |
* Rain latest hour (hover to see other rain measurements)
** Current wind speed in m/s (hover to see current wind gust speed)